Погода в Круглоозерном

Россия / Новосибирская область     55°04′45″N   79°17′49″E
темп.,
°C
ветер,
м/с
пор.,
м/с
влажн.,
%
обл.,
%
осадки,
мм/ч
давл.,
гПа
погр.,
м
6 марта, сб
сб601:00−3юз101794100 2.9 1013983
04:00−4юз91694100 0.9 1012899
07:00−6ююз101793100 2.2 1012866
10:00−6ююз111893100 0.8 1009985
13:00−3юз111794100 2.2 10071093
16:00−1юз111890100 0.9 10061308
19:00−1зюз91591100 1.4 10081166
22:00−5зюз6148798 0.1 1010621
7 марта, вс
вс701:00−10зюз5139088 0.1 1011302
04:00−14зюз47940 0.0 1013111
07:00−16зюз44930 0.0 101558
10:00−15юз369238 0.0 1017134
13:00−10зюз478665 0.0 1018272
16:00−8юз368733 0.0 1019307
19:00−11ююз239124 0.0 101921
22:00−13ююв348464 0.0 101927
8 марта, пн
пн801:00−10юв489582 0.1 1018181
04:00−3ю71393100 0.3 1014583
07:00−5ю71393100 0.3 1012426
10:00−4ю81593100 0.0 1009477
13:00−1ю91786100 0.0 1006709
16:00−2ююз101683100 0.0 1003941
19:00−1зюз101794100 0.5 10041239
22:00−9з8168999 0.2 1010706
9 марта, вт
вт901:00−11зюз71492100 0.2 1015547
04:00−13зюз61294100 0.1 1018391
07:00−17юз5109699 0.1 1021210
10:00−17юз499338 0.0 1024212
13:00−12ююз598940 0.0 1024354
16:00−10ююз698625 0.0 1023434
19:00−12ю499051 0.0 1021207
22:00−12ю51089100 0.0 1019266
10 марта, ср
ср1001:00−15ю499776 0.0 1017139
04:00−9юз51295100 0.1 1015458
07:00−14юз4796100 0.1 1014127
10:00−12юз4789100 0.0 1014240
13:00−9юз358999 0.0 1013276
16:00−6ю1183100 0.0 1012254
19:00−7в3592100 0.0 1008211
22:00−7св4895100 1.1 1004287